This demonstration page uses our WeatherBlox Daily Observations layout. Learn more.

Left ArrowRight Arrow

41.86663, -103.66717

Hourly Observations for August 25, 2018

Temp ( °F °C ) Dew Point ( °F °C ) Humidity (%) Winds ( mph kmh ) Pressure ( in mb ) Visibility ( mi km ) Precip ( " mm )
12:53 am 00:53 Clear 62 16.7 49 9.4 62 62 ENE 5 7 29.81 1010 10 16 0.00 0.00
1:53 am 01:53 Clear 59 15 49 9.4 69 69 E 8 13 29.80 1009 10 16 0.00 0.00
2:53 am 02:53 Clear 57 13.9 49 9.4 74 74 ENE 5 7 29.80 1009 10 16 0.00 0.00
3:53 am 03:53 Clear 54 12.2 48 8.9 80 80 WNW 6 9 29.82 1010 10 16 0.00 0.00
4:53 am 04:53 Clear 52 11.1 49 9.4 89 89 N 5 7 29.82 1010 10 16 0.00 0.00
5:53 am 05:53 Clear 51 10.6 47 8.3 86 86 SW 3 6 29.83 1010 10 16 0.00 0.00
6:53 am 06:53 Sunny 53 11.7 49 9.4 86 86 Calm 29.85 1011 9 14 0.00 0.00
7:53 am 07:53 Sunny 62 16.7 50 10 65 65 WNW 5 7 29.86 1011 10 16 0.00 0.00
8:53 am 08:53 Sunny 68 20 52 11.1 57 57 W 5 7 29.88 1012 10 16 0.00 0.00
9:53 am 09:53 Sunny 77 25 51 10.6 40 40 WNW 5 7 29.86 1011 10 16 0.00 0.00
10:53 am 10:53 Sunny 85 29.4 53 11.7 33 33 VRB 3 6 29.84 1011 10 16 0.00 0.00
11:53 am 11:53 Sunny 88 31.1 55 12.8 33 33 ENE 5 7 29.82 1010 10 16 0.00 0.00
12:53 pm 12:53 Sunny 92 33.3 51 10.6 25 25 ESE 9 15 29.80 1009 10 16 0.00 0.00
1:53 pm 13:53 Sunny 93 33.9 50 10 23 23 E 10 17 29.78 1009 10 16 0.00 0.00
2:53 pm 14:53 Mostly Cloudy 86 30 45 7.2 24 24 W 10 17 29.80 1009 10 16 0.00 0.00
3:18 pm 15:18 Cloudy with Light Rain 77 25 59 15 54 54 ENE 13 20 29.68 1005 6 10 0.00 0.00
3:25 pm 15:25 Mostly Cloudy with Nearby Thunderstorms 80 26.7 60 15.6 51 51 NE 13 20 29.65 1004 10 16 0.04 1.02
3:40 pm 15:40 Partly Cloudy 84 28.9 59 15 43 43 NE 8 13 29.62 1003 10 16 0.04 1.02
3:53 pm 15:53 Mostly Sunny 86 30 61 16.1 43 43 NNE 9 15 29.80 1009 10 16 0.04 1.02
4:53 pm 16:53 Sunny 86 30 57 13.9 37 37 E 8 13 29.79 1009 10 16 0.00 0.00
5:53 pm 17:53 Sunny 86 30 58 14.4 39 39 SSE 13 20 29.80 1009 10 16 0.00 0.00
6:53 pm 18:53 Sunny 79 26.1 59 15 50 50 ENE 8 13 29.78 1008 10 16 0.00 0.00
7:53 pm 19:53 Clear 73 22.8 58 14.4 59 59 ESE 9 15 29.78 1008 10 16 0.00 0.00
8:53 pm 20:53 Clear 67 19.4 60 15.6 79 79 E 6 9 29.79 1009 10 16 0.00 0.00
9:53 pm 21:53 Clear 65 18.3 61 16.1 87 87 E 8 13 29.79 1009 10 16 0.00 0.00
10:53 pm 22:53 Clear 66 18.9 61 16.1 84 84 E 8 13 29.77 1008 10 16 0.00 0.00
11:53 pm 23:53 Clear 73 22.8 55 12.8 53 53 SE 13 20 29.75 1008 10 16 0.00 0.00

Powered by AerisWeather